Retour au catalogue

ATLAS 5 CENTAUR R/B

ActifLEO
NORAD 39475·ROCKET BODY·🇺🇸 United States

Lancé Dec 6, 2013 depuis Vandenberg Space Force Base

Loading…

Prochains Passages (prochaines 24 heures)

TLE

FraisSource: Space-Track

Époque: Sep 14, 2026, 11:09 UTC

1 39475U 13072P   26257.46513865  .00003097  00000-0  20497-3 0  9995
2 39475 120.4316  95.8512 0180414   3.0068 357.2047 14.98690843127956

Suivez ATLAS 5 CENTAUR R/B en temps réel avec AllMySat

Download on the App Store